Time,TemperatureF,DewpointF,PressureIn,WindDirection,WindDirectionDegrees,WindSpeedMPH,WindSpeedGustMPH,Humidity,HourlyPrecipIn,Conditions,Clouds,dailyrainin,SoftwareType,DateUTC
2013-08-09 00:01:00,68.0,66.0,30.12,SW,226,4.0,13.0,93,0.00,,,0.03,,2013-08-09 04:01:00,
2013-08-09 00:12:00,68.0,66.0,30.11,WSW,257,1.0,18.0,93,0.00,,,0.03,,2013-08-09 04:12:00,
2013-08-09 00:22:00,68.0,66.0,30.11,WSW,246,3.0,16.0,93,0.00,,,0.03,,2013-08-09 04:22:00,
2013-08-09 00:43:00,68.0,66.0,30.11,SW,233,2.0,13.0,93,0.00,,,0.03,,2013-08-09 04:43:00,
2013-08-09 00:53:00,68.0,66.0,30.11,SW,234,3.0,10.0,93,0.00,,,0.03,,2013-08-09 04:53:00,
2013-08-09 01:02:00,68.0,66.0,30.11,WSW,251,2.0,18.0,94,0.00,,,0.03,,2013-08-09 05:02:00,
2013-08-09 01:11:00,68.0,66.0,30.11,WSW,251,2.0,18.0,94,0.00,,,0.03,,2013-08-09 05:11:00,
2013-08-09 01:32:00,68.0,66.0,30.11,SSW,195,4.0,11.0,94,0.00,,,0.03,,2013-08-09 05:32:00,
2013-08-09 01:43:00,68.0,66.0,30.11,SSW,195,4.0,11.0,94,0.00,,,0.03,,2013-08-09 05:43:00,
2013-08-09 01:52:00,68.0,66.0,30.11,WSW,240,3.0,12.0,94,0.00,,,0.03,,2013-08-09 05:52:00,
2013-08-09 02:01:00,68.0,66.0,30.11,SSW,195,4.0,11.0,94,0.00,,,0.03,,2013-08-09 06:01:00,
2013-08-09 02:11:00,68.0,66.0,30.10,SSW,205,3.0,11.0,93,0.00,,,0.03,,2013-08-09 06:11:00,
2013-08-09 02:22:00,68.0,66.0,30.10,West,263,4.0,12.0,94,0.00,,,0.03,,2013-08-09 06:22:00,
2013-08-09 02:32:00,68.0,66.0,30.09,WSW,242,4.0,15.0,93,0.00,,,0.03,,2013-08-09 06:32:00,
2013-08-09 02:43:00,68.0,66.0,30.09,WSW,242,4.0,15.0,93,0.00,,,0.03,,2013-08-09 06:43:00,
2013-08-09 02:52:00,68.0,66.0,30.09,West,269,5.0,12.0,93,0.00,,,0.03,,2013-08-09 06:52:00,
2013-08-09 03:01:00,69.0,67.0,30.09,SSW,204,4.0,10.0,92,0.00,,,0.03,,2013-08-09 07:01:00,
2013-08-09 03:12:00,69.0,67.0,30.09,SSW,204,4.0,10.0,92,0.00,,,0.03,,2013-08-09 07:12:00,
2013-08-09 03:22:00,68.0,66.0,30.09,WNW,286,8.0,18.0,93,0.00,,,0.03,,2013-08-09 07:22:00,
2013-08-09 03:33:00,68.0,66.0,30.09,WSW,245,5.0,13.0,92,0.00,,,0.03,,2013-08-09 07:33:00,
2013-08-09 03:43:00,68.0,66.0,30.09,WSW,245,5.0,13.0,92,0.00,,,0.03,,2013-08-09 07:43:00,
2013-08-09 03:53:00,69.0,66.0,30.09,SW,228,4.0,10.0,91,0.00,,,0.03,,2013-08-09 07:53:00,
2013-08-09 04:02:00,69.0,66.0,30.09,West,272,3.0,11.0,90,0.00,,,0.03,,2013-08-09 08:02:00,
2013-08-09 04:22:00,69.0,66.0,30.10,West,279,3.0,11.0,90,0.00,,,0.03,,2013-08-09 08:22:00,
2013-08-09 04:32:00,69.0,66.0,30.09,West,281,2.0,9.0,90,0.00,,,0.03,,2013-08-09 08:32:00,
2013-08-09 04:43:00,69.0,66.0,30.09,West,281,2.0,9.0,90,0.00,,,0.03,,2013-08-09 08:43:00,
2013-08-09 04:53:00,69.0,66.0,30.09,West,280,3.0,12.0,91,0.00,,,0.03,,2013-08-09 08:53:00,
2013-08-09 05:02:00,69.0,66.0,30.09,West,280,3.0,12.0,91,0.00,,,0.03,,2013-08-09 09:02:00,
2013-08-09 05:12:00,68.0,66.0,30.09,SW,224,6.0,14.0,92,0.00,,,0.03,,2013-08-09 09:12:00,
2013-08-09 05:22:00,68.0,66.0,30.09,WSW,244,5.0,13.0,92,0.00,,,0.03,,2013-08-09 09:22:00,
2013-08-09 05:32:00,68.0,66.0,30.09,WSW,244,5.0,13.0,92,0.00,,,0.03,,2013-08-09 09:32:00,
2013-08-09 05:43:00,68.0,66.0,30.09,WSW,245,3.0,17.0,93,0.00,,,0.03,,2013-08-09 09:43:00,
2013-08-09 05:52:00,68.0,66.0,30.09,West,278,5.0,11.0,92,0.00,,,0.03,,2013-08-09 09:52:00,
2013-08-09 06:01:00,68.0,65.0,30.09,WSW,248,3.0,11.0,91,0.00,,,0.03,,2013-08-09 10:01:00,
2013-08-09 06:12:00,68.0,65.0,30.09,WSW,248,3.0,11.0,91,0.00,,,0.03,,2013-08-09 10:12:00,
2013-08-09 06:22:00,69.0,66.0,30.10,WSW,248,2.0,9.0,90,0.00,,,0.03,,2013-08-09 10:22:00,
2013-08-09 06:32:00,69.0,66.0,30.10,WSW,248,2.0,9.0,90,0.00,,,0.03,,2013-08-09 10:32:00,
2013-08-09 06:43:00,68.0,65.0,30.10,West,260,2.0,11.0,91,0.00,,,0.03,,2013-08-09 10:43:00,
2013-08-09 06:53:00,68.0,65.0,30.11,West,262,3.0,13.0,91,0.00,,,0.03,,2013-08-09 10:53:00,
2013-08-09 07:02:00,68.0,65.0,30.11,West,262,3.0,13.0,91,0.00,,,0.03,,2013-08-09 11:02:00,
2013-08-09 07:11:00,68.0,66.0,30.11,West,275,5.0,16.0,92,0.00,,,0.03,,2013-08-09 11:11:00,
2013-08-09 07:22:00,68.0,66.0,30.11,WNW,301,5.0,12.0,92,0.00,,,0.03,,2013-08-09 11:22:00,
2013-08-09 07:43:00,68.0,66.0,30.11,WNW,282,5.0,20.0,92,0.00,,,0.03,,2013-08-09 11:43:00,
2013-08-09 07:53:00,68.0,65.0,30.12,West,268,4.0,13.0,90,0.00,,,0.03,,2013-08-09 11:53:00,
2013-08-09 08:12:00,68.0,65.0,30.12,West,278,5.0,14.0,90,0.00,,,0.03,,2013-08-09 12:12:00,
2013-08-09 08:32:00,69.0,66.0,30.12,West,272,5.0,11.0,89,0.00,,,0.03,,2013-08-09 12:32:00,
2013-08-09 08:43:00,69.0,65.0,30.12,West,274,7.0,15.0,87,0.00,,,0.03,,2013-08-09 12:43:00,
2013-08-09 08:52:00,69.0,65.0,30.11,WNW,303,6.0,18.0,88,0.00,,,0.03,,2013-08-09 12:52:00,
2013-08-09 09:12:00,68.0,64.0,30.12,West,276,10.0,16.0,88,0.00,,,0.03,,2013-08-09 13:12:00,
2013-08-09 09:23:00,69.0,65.0,30.13,WNW,287,6.0,17.0,88,0.00,,,0.03,,2013-08-09 13:23:00,
2013-08-09 09:32:00,69.0,65.0,30.13,WNW,287,6.0,17.0,88,0.00,,,0.03,,2013-08-09 13:32:00,
2013-08-09 09:43:00,69.0,65.0,30.12,West,278,5.0,15.0,88,0.00,,,0.03,,2013-08-09 13:43:00,
2013-08-09 09:52:00,69.0,65.0,30.13,West,272,4.0,13.0,88,0.00,,,0.03,,2013-08-09 13:52:00,
2013-08-09 10:02:00,70.0,66.0,30.12,WNW,285,2.0,14.0,87,0.00,,,0.03,,2013-08-09 14:02:00,
2013-08-09 10:11:00,70.0,66.0,30.12,WNW,285,2.0,14.0,87,0.00,,,0.03,,2013-08-09 14:11:00,
2013-08-09 10:22:00,71.0,66.0,30.13,West,262,5.0,14.0,85,0.00,,,0.03,,2013-08-09 14:22:00,
2013-08-09 10:33:00,71.0,66.0,30.13,WNW,284,7.0,15.0,84,0.00,,,0.03,,2013-08-09 14:33:00,
2013-08-09 10:43:00,71.0,66.0,30.13,WNW,284,7.0,15.0,84,0.00,,,0.03,,2013-08-09 14:43:00,
2013-08-09 10:53:00,71.0,66.0,30.14,West,271,7.0,14.0,84,0.00,,,0.03,,2013-08-09 14:53:00,
2013-08-09 11:02:00,71.0,66.0,30.14,West,271,7.0,14.0,84,0.00,,,0.03,,2013-08-09 15:02:00,
2013-08-09 11:12:00,71.0,67.0,30.13,West,272,6.0,15.0,86,0.00,,,0.03,,2013-08-09 15:12:00,
2013-08-09 11:22:00,72.0,68.0,30.12,NW,320,4.0,18.0,86,0.00,,,0.03,,2013-08-09 15:22:00,
2013-08-09 11:33:00,72.0,67.0,30.13,West,279,7.0,19.0,85,0.00,,,0.03,,2013-08-09 15:33:00,
2013-08-09 11:44:00,72.0,67.0,30.13,West,279,7.0,19.0,85,0.00,,,0.03,,2013-08-09 15:44:00,
2013-08-09 11:53:00,72.0,68.0,30.13,West,271,5.0,13.0,86,0.00,,,0.03,,2013-08-09 15:53:00,
2013-08-09 12:01:00,73.0,68.0,30.13,WNW,297,5.0,16.0,84,0.00,,,0.03,,2013-08-09 16:01:00,
2013-08-09 12:11:00,73.0,68.0,30.13,WNW,297,5.0,16.0,84,0.00,,,0.03,,2013-08-09 16:11:00,
2013-08-09 12:22:00,73.0,67.0,30.14,West,261,7.0,17.0,82,0.00,,,0.03,,2013-08-09 16:22:00,
2013-08-09 12:32:00,73.0,67.0,30.14,West,261,7.0,17.0,82,0.00,,,0.03,,2013-08-09 16:32:00,
2013-08-09 12:43:00,74.0,68.0,30.13,WNW,283,5.0,13.0,83,0.00,,,0.03,,2013-08-09 16:43:00,
2013-08-09 12:53:00,74.0,68.0,30.12,WNW,284,3.0,13.0,81,0.00,,,0.03,,2013-08-09 16:53:00,
2013-08-09 13:02:00,74.0,68.0,30.12,WNW,284,3.0,13.0,81,0.00,,,0.03,,2013-08-09 17:02:00,
2013-08-09 13:11:00,74.0,68.0,30.13,WNW,298,5.0,13.0,81,0.00,,,0.03,,2013-08-09 17:11:00,
2013-08-09 13:22:00,75.0,68.0,30.13,West,260,2.0,10.0,80,0.00,,,0.03,,2013-08-09 17:22:00,
2013-08-09 13:33:00,75.0,68.0,30.13,West,260,2.0,10.0,80,0.00,,,0.03,,2013-08-09 17:33:00,
2013-08-09 13:43:00,75.0,68.0,30.13,West,268,4.0,13.0,80,0.00,,,0.03,,2013-08-09 17:43:00,
2013-08-09 13:52:00,75.0,68.0,30.13,West,273,3.0,13.0,79,0.00,,,0.03,,2013-08-09 17:52:00,
2013-08-09 14:01:00,77.0,70.0,30.12,WSW,250,1.0,11.0,78,0.00,,,0.03,,2013-08-09 18:01:00,
2013-08-09 14:11:00,77.0,70.0,30.12,WSW,250,1.0,11.0,78,0.00,,,0.03,,2013-08-09 18:11:00,
2013-08-09 14:22:00,76.0,69.0,30.13,WNW,288,3.0,9.0,79,0.00,,,0.03,,2013-08-09 18:22:00,
2013-08-09 14:43:00,72.0,67.0,30.13,NW,307,3.0,12.0,85,0.00,,,0.03,,2013-08-09 18:43:00,
2013-08-09 14:53:00,70.0,67.0,30.12,WNW,284,4.0,10.0,90,0.13,,,0.16,,2013-08-09 18:53:00,
2013-08-09 15:02:00,72.0,69.0,30.11,West,271,5.0,13.0,89,0.13,,,0.16,,2013-08-09 19:02:00,
2013-08-09 15:11:00,72.0,69.0,30.11,West,271,5.0,13.0,89,0.13,,,0.16,,2013-08-09 19:11:00,
2013-08-09 15:32:00,74.0,69.0,30.11,WSW,250,3.0,12.0,85,0.13,,,0.16,,2013-08-09 19:32:00,
2013-08-09 15:43:00,74.0,70.0,30.11,WNW,288,1.0,6.0,86,0.13,,,0.16,,2013-08-09 19:43:00,
2013-08-09 15:52:00,76.0,71.0,30.11,NW,314,3.0,10.0,84,0.00,,,0.16,,2013-08-09 19:52:00,
2013-08-09 16:02:00,76.0,71.0,30.11,NW,314,3.0,10.0,84,0.00,,,0.16,,2013-08-09 20:02:00,
2013-08-09 16:11:00,77.0,71.0,30.11,West,280,3.0,10.0,81,0.00,,,0.16,,2013-08-09 20:11:00,
2013-08-09 16:32:00,77.0,71.0,30.10,West,273,2.0,8.0,82,0.00,,,0.16,,2013-08-09 20:32:00,
2013-08-09 16:43:00,77.0,70.0,30.10,North,0,0.0,7.0,80,0.00,,,0.16,,2013-08-09 20:43:00,
2013-08-09 16:52:00,77.0,70.0,30.09,NW,311,3.0,7.0,78,0.00,,,0.16,,2013-08-09 20:52:00,
2013-08-09 17:12:00,78.0,71.0,30.09,WNW,299,3.0,8.0,78,0.00,,,0.16,,2013-08-09 21:12:00,
2013-08-09 17:33:00,77.0,70.0,30.09,SSW,205,1.0,10.0,79,0.00,,,0.15,,2013-08-09 21:33:00,
2013-08-09 17:43:00,77.0,70.0,30.09,WSW,257,1.0,6.0,80,0.00,,,0.15,,2013-08-09 21:43:00,
2013-08-09 17:52:00,76.0,69.0,30.10,WNW,292,1.0,9.0,79,0.00,,,0.15,,2013-08-09 21:52:00,
2013-08-09 18:01:00,76.0,69.0,30.10,WNW,292,1.0,9.0,79,0.00,,,0.15,,2013-08-09 22:01:00,
2013-08-09 18:11:00,77.0,70.0,30.10,North,0,0.0,9.0,78,0.00,,,0.15,,2013-08-09 22:11:00,
2013-08-09 18:22:00,76.0,69.0,30.10,West,279,1.0,7.0,78,0.00,,,0.14,,2013-08-09 22:22:00,
2013-08-09 18:42:00,77.0,68.0,30.10,SW,224,3.0,13.0,75,0.00,,,0.13,,2013-08-09 22:42:00,
2013-08-09 18:52:00,77.0,69.0,30.10,West,273,1.0,8.0,76,0.00,,,0.13,,2013-08-09 22:52:00,
2013-08-09 19:02:00,77.0,69.0,30.10,West,273,1.0,8.0,76,0.00,,,0.13,,2013-08-09 23:02:00,
2013-08-09 19:11:00,77.0,69.0,30.09,SSW,207,1.0,9.0,76,0.00,,,0.13,,2013-08-09 23:11:00,
2013-08-09 19:22:00,77.0,68.0,30.10,North,0,0.0,8.0,74,0.00,,,0.13,,2013-08-09 23:22:00,
2013-08-09 19:32:00,77.0,68.0,30.10,North,0,0.0,8.0,74,0.00,,,0.13,,2013-08-09 23:32:00,
2013-08-09 19:43:00,77.0,68.0,30.10,SW,225,1.0,10.0,75,0.00,,,0.13,,2013-08-09 23:43:00,
2013-08-09 19:52:00,76.0,68.0,30.11,North,0,0.0,8.0,77,0.00,,,0.13,,2013-08-09 23:52:00,
2013-08-09 20:01:00,75.0,68.0,30.11,SW,228,1.0,7.0,78,0.00,,,0.13,,2013-08-10 00:01:00,
2013-08-09 20:22:00,74.0,67.0,30.11,WNW,287,1.0,7.0,79,0.00,,,0.13,,2013-08-10 00:22:00,
2013-08-09 20:33:00,74.0,67.0,30.11,WNW,287,1.0,7.0,79,0.00,,,0.13,,2013-08-10 00:33:00,
2013-08-09 20:43:00,73.0,68.0,30.11,WSW,246,2.0,7.0,85,0.00,,,0.13,,2013-08-10 00:43:00,
2013-08-09 20:53:00,73.0,68.0,30.11,WSW,246,2.0,7.0,85,0.00,,,0.13,,2013-08-10 00:53:00,
2013-08-09 21:01:00,72.0,68.0,30.12,SW,234,1.0,8.0,87,0.00,,,0.13,,2013-08-10 01:01:00,
2013-08-09 21:10:00,72.0,68.0,30.12,SW,222,2.0,10.0,86,0.00,,,0.13,,2013-08-10 01:10:00,
2013-08-09 21:11:00,72.0,68.0,30.12,SW,234,1.0,8.0,87,0.00,,,0.13,,2013-08-10 01:11:00,
2013-08-09 21:22:00,72.0,68.0,30.12,SW,234,1.0,8.0,87,0.00,,,0.13,,2013-08-10 01:22:00,
2013-08-09 21:32:00,72.0,68.0,30.12,SW,222,2.0,10.0,86,0.00,,,0.13,,2013-08-10 01:32:00,
2013-08-09 21:42:00,72.0,68.0,30.12,SW,222,2.0,10.0,86,0.00,,,0.13,,2013-08-10 01:42:00,
2013-08-09 21:52:00,72.0,68.0,30.12,SW,222,2.0,10.0,86,0.00,,,0.13,,2013-08-10 01:52:00,
2013-08-09 22:03:00,72.0,68.0,30.12,SW,222,2.0,10.0,86,0.00,,,0.13,,2013-08-10 02:03:00,
2013-08-09 22:10:00,72.0,68.0,30.11,West,269,3.0,9.0,87,0.00,,,0.13,,2013-08-10 02:10:00,
2013-08-09 22:32:00,72.0,68.0,30.11,West,269,3.0,9.0,87,0.00,,,0.13,,2013-08-10 02:32:00,
2013-08-09 22:42:00,72.0,68.0,30.11,West,269,3.0,9.0,87,0.00,,,0.13,,2013-08-10 02:42:00,
2013-08-09 22:52:00,72.0,68.0,30.11,West,269,3.0,9.0,87,0.00,,,0.13,,2013-08-10 02:52:00,
2013-08-09 23:01:00,72.0,68.0,30.11,West,269,3.0,9.0,87,0.00,,,0.13,,2013-08-10 03:01:00,
2013-08-09 23:52:00,71.0,67.0,30.14,West,281,6.0,13.0,87,0.00,,,0.13,,2013-08-10 03:52:00,